This is the latest recevied weather packets stored in our database for station/object K3HM. If no packets are shown the sender has not sent any weather packets the latest 10 day(s).
| Time | Temp. | Humidity | Pressure | Rain* | Wind** | Luminosity | Snow |
|---|---|---|---|---|---|---|---|
| 1777858855 | 3.89° C | 76% | 1015.4 hPa | 0 mm | - | 0 W/m² | - |
| 1777858553 | 3.89° C | 76% | 1015.1 hPa | 0 mm | - | 0 W/m² | - |
| 1777858249 | 3.89° C | 76% | 1015.3 hPa | 0 mm | - | 0 W/m² | - |
| 1777857947 | 3.89° C | 74% | 1015.1 hPa | 0 mm | - | 0 W/m² | - |
| 1777857645 | 4.44° C | 73% | 1015.1 hPa | 0 mm | - | 0 W/m² | - |
| 1777857341 | 3.89° C | 74% | 1015.3 hPa | 0 mm | - | 0 W/m² | - |
| 1777857037 | 4.44° C | 73% | 1014.9 hPa | 0 mm | - | 0 W/m² | - |
| 1777856733 | 5° C | 69% | 1015.4 hPa | 0 mm | - | 0 W/m² | - |
| 1777856429 | 5° C | 66% | 1015.4 hPa | 0 mm | - | 0 W/m² | - |
| 1777856126 | 5.56° C | 64% | 1015.1 hPa | 0 mm | - | 0 W/m² | - |
| 1777855824 | 5.56° C | 64% | 1014.9 hPa | 0 mm | - | 0 W/m² | - |
| 1777855521 | 6.67° C | 62% | 1015.1 hPa | 0 mm | - | 0 W/m² | - |
| 1777855218 | 6.67° C | 58% | 1015.1 hPa | 0 mm | - | 0 W/m² | - |
| 1777854914 | 6.11° C | 60% | 1014.9 hPa | 0 mm | - | 0 W/m² | - |
| 1777854611 | 6.67° C | 60% | 1015 hPa | 0 mm | - | 0 W/m² | - |
| 1777854308 | 6.67° C | 60% | 1015 hPa | 0 mm | - | 0 W/m² | - |
| 1777854006 | 7.22° C | 57% | 1014.9 hPa | 0 mm | - | 1 W/m² | - |
| 1777853703 | 7.78° C | 55% | 1014.9 hPa | 0 mm | - | 2 W/m² | - |
| 1777853399 | 7.78° C | 52% | 1014.9 hPa | 0 mm | - | 3 W/m² | - |
| 1777853097 | 8.33° C | 52% | 1015.1 hPa | 0 mm | - | 5 W/m² | - |
| 1777852794 | 8.89° C | 51% | 1015 hPa | 0 mm | - | 7 W/m² | - |
| 1777852491 | 8.89° C | 50% | 1015 hPa | 0 mm | - | 9 W/m² | - |
| 1777852188 | 8.89° C | 50% | 1015 hPa | 0 mm | - | 14 W/m² | - |
| 1777851886 | 8.89° C | 50% | 1015 hPa | 0 mm | - | 16 W/m² | - |
| 1777851584 | 9.44° C | 48% | 1015 hPa | 0 mm | - | 18 W/m² | - |
* Rain latest hour (hover to see other rain measurements)
** Current wind speed in m/s (hover to see current wind gust speed)